| time (UTC) | temp F | wind direction | speed knots | gust knots | rain 1hr in | rain 24hr in | rain mn in | humidity % | barometer mb |
| 20260903015715 | 87 | 158 | 0.0 | 0.0 | 0.00 | 0.00 | 0.00 | 47 | 1013.0 |
| 20260903015211 | 87 | 155 | 0.9 | 0.9 | 0.00 | 0.00 | 0.00 | 47 | 1013.3 |
| 20260903014706 | 87 | 171 | 2.6 | 2.6 | 0.00 | 0.00 | 0.00 | 46 | 1013.1 |
| 20260903014205 | 87 | 203 | 1.7 | 1.7 | 0.00 | 0.00 | 0.00 | 46 | 1013.1 |
| 20260903013700 | 87 | 189 | 0.0 | 0.0 | 0.00 | 0.00 | 0.00 | 46 | 1012.9 |
| 20260903013200 | 88 | 199 | 0.9 | 0.9 | 0.00 | 0.00 | 0.00 | 45 | 1013.2 |
| 20260903012658 | 88 | 170 | 0.9 | 0.9 | 0.00 | 0.00 | 0.00 | 45 | 1012.7 |
| 20260903012158 | 88 | 194 | 0.9 | 0.9 | 0.00 | 0.00 | 0.00 | 44 | 1012.7 |
| 20260903011653 | 88 | 214 | 3.5 | 4.3 | 0.00 | 0.00 | 0.00 | 44 | 1012.7 |
| 20260903011152 | 88 | 212 | 1.7 | 1.7 | 0.00 | 0.00 | 0.00 | 44 | 1012.7 |
| 20260903010648 | 89 | 219 | 3.5 | 4.3 | 0.00 | 0.00 | 0.00 | 43 | 1012.8 |
| 20260903010147 | 89 | 201 | 2.6 | 2.6 | 0.00 | 0.00 | 0.00 | 43 | 1012.6 |
| 20260903005647 | 89 | 205 | 0.9 | 1.7 | 0.00 | 0.00 | 0.00 | 44 | 1012.5 |
| 20260903005142 | 89 | 238 | 4.3 | 5.2 | 0.00 | 0.00 | 0.00 | 43 | 1012.5 |
| 20260903004637 | 89 | 233 | 1.7 | 1.7 | 0.00 | 0.00 | 0.00 | 43 | 1012.6 |
| 20260903004132 | 89 | 232 | 2.6 | 4.3 | 0.00 | 0.00 | 0.00 | 43 | 1012.6 |
| 20260903003627 | 89 | 229 | 4.3 | 5.2 | 0.00 | 0.00 | 0.00 | 42 | 1012.6 |
| 20260903003117 | 89 | 227 | 2.6 | 4.3 | 0.00 | 0.00 | 0.00 | 40 | 1012.8 |
| 20260903002612 | 90 | 247 | 3.5 | 4.3 | 0.00 | 0.00 | 0.00 | 39 | 1012.8 |
| 20260903002112 | 90 | 235 | 2.6 | 4.3 | 0.00 | 0.00 | 0.00 | 40 | 1012.8 |
| 20260903001607 | 90 | 231 | 4.3 | 5.2 | 0.00 | 0.00 | 0.00 | 39 | 1012.7 |
| 20260903001101 | 90 | 243 | 4.3 | 6.1 | 0.00 | 0.00 | 0.00 | 39 | 1012.9 |
| 20260903000556 | 90 | 247 | 4.3 | 6.1 | 0.00 | 0.00 | 0.00 | 39 | 1012.8 |
| 20260903000050 | 91 | 228 | 2.6 | 2.6 | 0.00 | 0.00 | 0.00 | 38 | 1013.0 |
| 20260902235549 | 90 | 190 | 2.6 | 5.2 | 0.00 | 0.00 | 0.00 | 40 | 1012.7 |
| 20260902235044 | 91 | 245 | 4.3 | 4.3 | 0.00 | 0.00 | 0.00 | 39 | 1012.9 |
| 20260902234544 | 90 | 188 | 2.6 | 2.6 | 0.00 | 0.00 | 0.00 | 39 | 1012.7 |
| 20260902234043 | 91 | 185 | 3.5 | 5.2 | 0.00 | 0.00 | 0.00 | 39 | 1012.7 |
| 20260902233538 | 91 | 236 | 4.3 | 5.2 | 0.00 | 0.00 | 0.00 | 40 | 1012.9 |
| 20260902233032 | 92 | 238 | 2.6 | 4.3 | 0.00 | 0.00 | 0.00 | 38 | 1012.9 |
| 20260902232532 | 91 | 188 | 0.9 | 1.7 | 0.00 | 0.00 | 0.00 | 38 | 1012.8 |
| 20260902232026 | 92 | 232 | 3.5 | 4.3 | 0.00 | 0.00 | 0.00 | 38 | 1012.9 |
| 20260902231521 | 92 | 205 | 2.6 | 1.7 | 0.00 | 0.00 | 0.00 | 39 | 1013.1 |
| 20260902231021 | 92 | 167 | 2.6 | 2.6 | 0.00 | 0.00 | 0.00 | 38 | 1013.1 |
| 20260902230520 | 92 | 218 | 2.6 | 4.3 | 0.00 | 0.00 | 0.00 | 40 | 1013.0 |
| 20260902230015 | 93 | 192 | 6.1 | 7.8 | 0.00 | 0.00 | 0.00 | 37 | 1013.4 |
| 20260902225510 | 93 | 228 | 4.3 | 7.0 | 0.00 | 0.00 | 0.00 | 38 | 1013.1 |
| 20260902225004 | 93 | 221 | 4.3 | 5.2 | 0.00 | 0.00 | 0.00 | 37 | 1013.3 |
| 20260902224502 | 91 | 202 | 5.2 | 6.1 | 0.00 | 0.00 | 0.00 | 37 | 1013.0 |
| 20260902223954 | 91 | 174 | 1.7 | 1.7 | 0.00 | 0.00 | 0.00 | 38 | 1013.4 |
| 20260902223449 | 91 | 129 | 0.9 | 0.9 | 0.00 | 0.00 | 0.00 | 38 | 1013.3 |
| 20260902222948 | 91 | 185 | 3.5 | 4.3 | 0.00 | 0.00 | 0.00 | 37 | 1013.3 |
| 20260902222447 | 91 | 188 | 4.3 | 6.1 | 0.00 | 0.00 | 0.00 | 38 | 1013.3 |
| 20260902221947 | 91 | 208 | 4.3 | 5.2 | 0.00 | 0.00 | 0.00 | 39 | 1013.3 |
| 20260902221446 | 90 | 193 | 4.3 | 6.1 | 0.00 | 0.00 | 0.00 | 39 | 1013.3 |
| 20260902220942 | 91 | 200 | 6.1 | 7.0 | 0.00 | 0.00 | 0.00 | 41 | 1013.8 |
| 20260902220441 | 92 | 226 | 4.3 | 6.1 | 0.00 | 0.00 | 0.00 | 41 | 1013.5 |
| 20260902215936 | 91 | 317 | 0.9 | 0.9 | 0.00 | 0.00 | 0.00 | 39 | 1013.5 |
| 20260902215432 | 91 | 291 | 1.7 | 2.6 | 0.00 | 0.00 | 0.00 | 39 | 1013.5 |
| 20260902214928 | 91 | 287 | 0.9 | 0.9 | 0.00 | 0.00 | 0.00 | 39 | 1013.5 |
| 20260902214426 | 91 | 256 | 1.7 | 1.7 | 0.00 | 0.00 | 0.00 | 39 | 1013.5 |
| 20260902213921 | 91 | 293 | 1.7 | 1.7 | 0.00 | 0.00 | 0.00 | 40 | 1013.5 |
| 20260902213417 | 91 | 301 | 1.7 | 1.7 | 0.00 | 0.00 | 0.00 | 40 | 1013.5 |
| 20260902212915 | 92 | 342 | 0.9 | 0.9 | 0.00 | 0.00 | 0.00 | 39 | 1013.3 |
| 20260902212412 | 92 | 310 | 0.9 | 1.7 | 0.00 | 0.00 | 0.00 | 38 | 1013.4 |
| 20260902211908 | 92 | 313 | 4.3 | 6.1 | 0.00 | 0.00 | 0.00 | 39 | 1013.4 |
| 20260902211404 | 92 | 281 | 2.6 | 4.3 | 0.00 | 0.00 | 0.00 | 39 | 1013.8 |
| 20260902210859 | 92 | 280 | 2.6 | 2.6 | 0.00 | 0.00 | 0.00 | 38 | 1013.9 |
| 20260902210358 | 93 | 302 | 2.6 | 4.3 | 0.00 | 0.00 | 0.00 | 36 | 1014.1 |
| 20260902205857 | 93 | 17 | 0.0 | 0.0 | 0.00 | 0.00 | 0.00 | 36 | 1013.9 |
| 20260902205352 | 95 | 283 | 4.3 | 5.2 | 0.00 | 0.00 | 0.00 | 35 | 1013.9 |
| 20260902204848 | 95 | 277 | 2.6 | 1.7 | 0.00 | 0.00 | 0.00 | 35 | 1013.8 |
| 20260902204347 | 95 | 338 | 2.6 | 4.3 | 0.00 | 0.00 | 0.00 | 37 | 1014.0 |
| 20260902203843 | 95 | 7 | 1.7 | 1.7 | 0.00 | 0.00 | 0.00 | 36 | 1014.0 |
| 20260902203338 | 96 | 303 | 3.5 | 5.2 | 0.00 | 0.00 | 0.00 | 35 | 1014.2 |
| 20260902202832 | 97 | 253 | 2.6 | 2.6 | 0.00 | 0.00 | 0.00 | 35 | 1014.2 |
| 20260902202328 | 96 | 313 | 2.6 | 4.3 | 0.00 | 0.00 | 0.00 | 35 | 1014.1 |
| 20260902201825 | 96 | 41 | 3.5 | 5.2 | 0.00 | 0.00 | 0.00 | 36 | 1014.1 |
| 20260902201325 | 95 | 293 | 1.7 | 1.7 | 0.00 | 0.00 | 0.00 | 36 | 1014.0 |
| 20260902200820 | 96 | 278 | 4.3 | 5.2 | 0.00 | 0.00 | 0.00 | 35 | 1014.3 |
| 20260902200315 | 95 | 281 | 1.7 | 2.6 | 0.00 | 0.00 | 0.00 | 37 | 1014.3 |
| 20260902195810 | 95 | 306 | 2.6 | 2.6 | 0.00 | 0.00 | 0.00 | 37 | 1014.6 |
| 20260902195309 | 95 | 295 | 2.6 | 5.2 | 0.00 | 0.00 | 0.00 | 38 | 1014.4 |
| 20260902194804 | 95 | 309 | 0.9 | 0.9 | 0.00 | 0.00 | 0.00 | 39 | 1014.7 |
| 20260902194259 | 94 | 277 | 2.6 | 2.6 | 0.00 | 0.00 | 0.00 | 39 | 1014.6 |
| 20260902193754 | 95 | 316 | 2.6 | 4.3 | 0.00 | 0.00 | 0.00 | 37 | 1015.0 |
| 20260902193250 | 95 | 316 | 2.6 | 4.3 | 0.00 | 0.00 | 0.00 | 37 | 1015.0 |
| 20260902192749 | 95 | 274 | 2.6 | 2.6 | 0.00 | 0.00 | 0.00 | 38 | 1014.9 |
| 20260902192248 | 95 | 257 | 2.6 | 4.3 | 0.00 | 0.00 | 0.00 | 38 | 1015.3 |
| 20260902191747 | 95 | 292 | 0.9 | 1.7 | 0.00 | 0.00 | 0.00 | 38 | 1015.3 |
| 20260902191243 | 95 | 290 | 1.7 | 1.7 | 0.00 | 0.00 | 0.00 | 39 | 1015.3 |
| 20260902190738 | 95 | 313 | 2.6 | 2.6 | 0.00 | 0.00 | 0.00 | 39 | 1015.5 |
| 20260902190237 | 95 | 240 | 3.5 | 5.2 | 0.00 | 0.00 | 0.00 | 38 | 1015.7 |
| 20260902185733 | 94 | 284 | 3.5 | 4.3 | 0.00 | 0.00 | 0.00 | 38 | 1015.5 |
| 20260902185229 | 94 | 245 | 4.3 | 5.2 | 0.00 | 0.00 | 0.00 | 39 | 1015.7 |
| 20260902184724 | 94 | 296 | 1.7 | 1.7 | 0.00 | 0.00 | 0.00 | 39 | 1015.7 |
| 20260902184220 | 94 | 19 | 2.6 | 4.3 | 0.00 | 0.00 | 0.00 | 39 | 1015.7 |
| 20260902183716 | 93 | 258 | 1.7 | 0.9 | 0.00 | 0.00 | 0.00 | 42 | 1015.7 |
| 20260902183212 | 94 | 291 | 1.7 | 2.6 | 0.00 | 0.00 | 0.00 | 41 | 1016.0 |
| 20260902182708 | 94 | 357 | 3.5 | 4.3 | 0.00 | 0.00 | 0.00 | 40 | 1016.0 |
| 20260902182204 | 93 | 312 | 1.7 | 2.6 | 0.00 | 0.00 | 0.00 | 42 | 1016.1 |
| 20260902181659 | 93 | 303 | 2.6 | 2.6 | 0.00 | 0.00 | 0.00 | 41 | 1015.8 |
| 20260902181154 | 93 | 250 | 2.6 | 4.3 | 0.00 | 0.00 | 0.00 | 41 | 1016.0 |
| 20260902180654 | 93 | 306 | 1.7 | 2.6 | 0.00 | 0.00 | 0.00 | 43 | 1016.3 |
| 20260902180150 | 93 | 234 | 1.7 | 2.6 | 0.00 | 0.00 | 0.00 | 41 | 1016.0 |
| 20260902175649 | 92 | 276 | 0.9 | 1.7 | 0.00 | 0.00 | 0.00 | 42 | 1016.2 |
| 20260902175145 | 93 | 293 | 2.6 | 2.6 | 0.00 | 0.00 | 0.00 | 41 | 1016.2 |
| 20260902174641 | 92 | 284 | 2.6 | 4.3 | 0.00 | 0.00 | 0.00 | 42 | 1016.4 |
| 20260902174137 | 91 | 15 | 2.6 | 2.6 | 0.00 | 0.00 | 0.00 | 43 | 1016.4 |
| 20260902173632 | 92 | 327 | 3.5 | 5.2 | 0.00 | 0.00 | 0.00 | 44 | 1016.4 |
| 20260902173127 | 91 | 255 | 1.7 | 1.7 | 0.00 | 0.00 | 0.00 | 44 | 1016.3 |
| 20260902172621 | 92 | 171 | 1.7 | 0.9 | 0.00 | 0.00 | 0.00 | 44 | 1016.4 |
| 20260902172121 | 92 | 270 | 0.9 | 1.7 | 0.00 | 0.00 | 0.00 | 44 | 1016.7 |
| 20260902171616 | 92 | 243 | 1.7 | 1.7 | 0.00 | 0.00 | 0.00 | 43 | 1016.2 |
| 20260902171112 | 93 | 219 | 2.6 | 1.7 | 0.00 | 0.00 | 0.00 | 43 | 1016.3 |
| 20260902170608 | 92 | 85 | 0.0 | 0.0 | 0.00 | 0.00 | 0.00 | 44 | 1016.2 |
| 20260902170103 | 92 | 96 | 0.0 | 0.0 | 0.00 | 0.00 | 0.00 | 45 | 1016.6 |
| 20260902165603 | 92 | 79 | 1.7 | 0.9 | 0.00 | 0.00 | 0.00 | 44 | 1016.7 |
| 20260902165057 | 91 | 96 | 0.9 | 0.9 | 0.00 | 0.00 | 0.00 | 45 | 1016.7 |
| 20260902164553 | 91 | 134 | 1.7 | 2.6 | 0.00 | 0.00 | 0.00 | 45 | 1016.6 |
| 20260902164051 | 91 | 119 | 0.9 | 0.9 | 0.00 | 0.00 | 0.00 | 44 | 1016.7 |
| 20260902163547 | 92 | 191 | 3.5 | 4.3 | 0.00 | 0.00 | 0.00 | 44 | 1016.6 |
| 20260902163045 | 92 | 124 | 0.9 | 0.9 | 0.00 | 0.00 | 0.00 | 45 | 1016.9 |
| 20260902162539 | 90 | 94 | 0.0 | 0.0 | 0.00 | 0.00 | 0.00 | 46 | 1016.7 |
| 20260902162035 | 90 | 133 | 1.7 | 2.6 | 0.00 | 0.00 | 0.00 | 46 | 1016.8 |
| 20260902161535 | 91 | 82 | 0.9 | 0.9 | 0.00 | 0.00 | 0.00 | 47 | 1016.9 |
| 20260902161031 | 91 | 83 | 0.0 | 0.0 | 0.00 | 0.00 | 0.00 | 46 | 1016.9 |
| 20260902160526 | 90 | 97 | 0.0 | 0.0 | 0.00 | 0.00 | 0.00 | 47 | 1016.6 |
| 20260902160021 | 90 | 108 | 0.9 | 0.9 | 0.00 | 0.00 | 0.00 | 48 | 1016.7 |
| 20260902155514 | 89 | 105 | 0.0 | 0.0 | 0.00 | 0.00 | 0.00 | 47 | 1016.9 |
| 20260902155013 | 88 | 86 | 0.0 | 0.0 | 0.00 | 0.00 | 0.00 | 48 | 1016.6 |
| 20260902154509 | 88 | 91 | 1.7 | 1.7 | 0.00 | 0.00 | 0.00 | 51 | 1016.9 |
| 20260902154003 | 87 | 70 | 1.7 | 1.7 | 0.00 | 0.00 | 0.00 | 52 | 1016.8 |
| 20260902153502 | 86 | 84 | 0.9 | 0.9 | 0.00 | 0.00 | 0.00 | 53 | 1016.8 |
| 20260902152957 | 86 | 57 | 1.7 | 1.7 | 0.00 | 0.00 | 0.00 | 53 | 1016.9 |
| 20260902152454 | 87 | 71 | 0.9 | 0.9 | 0.00 | 0.00 | 0.00 | 52 | 1016.7 |
| 20260902151949 | 86 | 91 | 0.0 | 0.0 | 0.00 | 0.00 | 0.00 | 52 | 1016.7 |
| 20260902151445 | 86 | 104 | 0.0 | 0.9 | 0.00 | 0.00 | 0.00 | 54 | 1016.8 |
| 20260902150944 | 84 | 108 | 0.9 | 0.9 | 0.00 | 0.00 | 0.00 | 56 | 1016.6 |
| 20260902150441 | 84 | 63 | 1.7 | 1.7 | 0.00 | 0.00 | 0.00 | 56 | 1016.4 |
| 20260902145940 | 83 | 81 | 1.7 | 1.7 | 0.00 | 0.00 | 0.00 | 57 | 1016.6 |
| 20260902145436 | 83 | 83 | 0.9 | 0.9 | 0.00 | 0.00 | 0.00 | 59 | 1016.6 |
| 20260902144930 | 82 | 65 | 0.9 | 0.9 | 0.00 | 0.00 | 0.00 | 61 | 1016.3 |
| 20260902144426 | 82 | 73 | 0.9 | 0.9 | 0.00 | 0.00 | 0.00 | 63 | 1016.3 |
| 20260902143926 | 84 | 77 | 0.9 | 0.9 | 0.00 | 0.00 | 0.00 | 60 | 1016.4 |
| 20260902143421 | 84 | 88 | 1.7 | 1.7 | 0.00 | 0.00 | 0.00 | 57 | 1016.4 |
| 20260902142917 | 83 | 89 | 0.0 | 0.0 | 0.00 | 0.00 | 0.00 | 60 | 1016.4 |
| 20260902142413 | 83 | 90 | 0.0 | 0.0 | 0.00 | 0.00 | 0.00 | 60 | 1016.6 |
| 20260902141908 | 82 | 90 | 0.0 | 0.0 | 0.00 | 0.00 | 0.00 | 62 | 1016.4 |
| 20260902141403 | 82 | 90 | 0.0 | 0.0 | 0.00 | 0.00 | 0.00 | 62 | 1016.2 |
| 20260902140903 | 82 | 90 | 0.0 | 0.0 | 0.00 | 0.00 | 0.00 | 61 | 1016.3 |
| 20260902140358 | 83 | 89 | 0.9 | 0.9 | 0.00 | 0.00 | 0.00 | 59 | 1016.1 |
| 20260902135858 | 81 | 89 | 0.0 | 0.0 | 0.00 | 0.00 | 0.00 | 62 | 1016.2 |
| 20260902135354 | 80 | 90 | 0.0 | 0.0 | 0.00 | 0.00 | 0.00 | 66 | 1016.3 |
| 20260902134852 | 78 | 89 | 0.0 | 0.0 | 0.00 | 0.00 | 0.00 | 68 | 1016.1 |
| 20260902134349 | 77 | 89 | 0.0 | 0.0 | 0.00 | 0.00 | 0.00 | 70 | 1016.1 |
| 20260902133843 | 76 | 89 | 0.0 | 0.0 | 0.00 | 0.00 | 0.00 | 72 | 1016.2 |
| 20260902133343 | 75 | 89 | 0.0 | 0.0 | 0.00 | 0.00 | 0.00 | 74 | 1016.1 |
| 20260902132838 | 74 | 89 | 0.0 | 0.0 | 0.00 | 0.00 | 0.00 | 75 | 1015.9 |
| 20260902132333 | 74 | 89 | 0.0 | 0.0 | 0.00 | 0.00 | 0.00 | 76 | 1015.8 |
| 20260902131829 | 74 | 90 | 0.0 | 0.0 | 0.00 | 0.00 | 0.00 | 76 | 1015.7 |
| 20260902131326 | 74 | 90 | 0.0 | 0.0 | 0.00 | 0.00 | 0.00 | 77 | 1015.8 |
| 20260902130825 | 73 | 90 | 0.0 | 0.0 | 0.00 | 0.00 | 0.00 | 79 | 1015.7 |
| 20260902130321 | 73 | 90 | 0.0 | 0.0 | 0.00 | 0.00 | 0.00 | 78 | 1015.7 |
| 20260902125816 | 73 | 90 | 0.0 | 0.0 | 0.00 | 0.00 | 0.00 | 78 | 1015.8 |
| 20260902125312 | 73 | 90 | 0.0 | 0.0 | 0.00 | 0.00 | 0.00 | 78 | 1015.6 |
| 20260902124808 | 74 | 90 | 0.0 | 0.0 | 0.00 | 0.00 | 0.00 | 78 | 1015.6 |
| 20260902124303 | 74 | 90 | 0.0 | 0.0 | 0.00 | 0.00 | 0.00 | 78 | 1015.8 |
| 20260902123758 | 74 | 90 | 0.0 | 0.0 | 0.00 | 0.00 | 0.00 | 78 | 1015.6 |
| 20260902123254 | 74 | 90 | 0.9 | 0.9 | 0.00 | 0.00 | 0.00 | 77 | 1015.6 |
| 20260902122753 | 74 | 90 | 0.0 | 0.0 | 0.00 | 0.00 | 0.00 | 77 | 1015.8 |
| 20260902122249 | 74 | 90 | 0.0 | 0.0 | 0.00 | 0.00 | 0.00 | 76 | 1015.8 |
| 20260902121748 | 74 | 89 | 0.9 | 0.9 | 0.00 | 0.00 | 0.00 | 77 | 1015.6 |
| 20260902121244 | 74 | 90 | 0.0 | 0.0 | 0.00 | 0.00 | 0.00 | 77 | 1015.5 |
| 20260902120739 | 74 | 89 | 0.0 | 0.0 | 0.00 | 0.00 | 0.00 | 77 | 1015.6 |
| 20260902120235 | 74 | 89 | 0.9 | 0.9 | 0.00 | 0.00 | 0.00 | 77 | 1015.4 |
| 20260902115730 | 74 | 87 | 0.9 | 0.9 | 0.00 | 0.00 | 0.00 | 77 | 1015.5 |
| 20260902115226 | 74 | 82 | 0.0 | 0.0 | 0.00 | 0.00 | 0.00 | 77 | 1015.6 |
| 20260902114722 | 74 | 82 | 0.9 | 0.9 | 0.00 | 0.00 | 0.00 | 78 | 1015.9 |
| 20260902114217 | 74 | 82 | 0.0 | 0.0 | 0.00 | 0.00 | 0.00 | 77 | 1015.5 |
| 20260902113712 | 74 | 82 | 0.0 | 0.0 | 0.00 | 0.00 | 0.00 | 77 | 1015.7 |
| 20260902113207 | 74 | 81 | 0.0 | 0.0 | 0.00 | 0.00 | 0.00 | 76 | 1015.5 |
| 20260902112707 | 74 | 81 | 0.0 | 0.9 | 0.00 | 0.00 | 0.00 | 76 | 1015.7 |
| 20260902112204 | 74 | 75 | 0.9 | 0.9 | 0.00 | 0.00 | 0.00 | 76 | 1015.3 |
| 20260902111659 | 74 | 83 | 0.9 | 0.9 | 0.00 | 0.00 | 0.00 | 76 | 1015.5 |
| 20260902111155 | 74 | 85 | 0.9 | 0.9 | 0.00 | 0.00 | 0.00 | 76 | 1015.6 |
| 20260902110650 | 75 | 86 | 0.9 | 0.9 | 0.00 | 0.00 | 0.00 | 76 | 1015.6 |
| 20260902110147 | 75 | 86 | 0.9 | 0.9 | 0.00 | 0.00 | 0.00 | 76 | 1015.6 |
| 20260902105646 | 75 | 86 | 0.0 | 0.0 | 0.00 | 0.00 | 0.00 | 76 | 1015.6 |
| 20260902105142 | 75 | 87 | 0.9 | 0.9 | 0.00 | 0.00 | 0.00 | 76 | 1015.7 |
| 20260902104637 | 75 | 88 | 0.9 | 0.9 | 0.00 | 0.00 | 0.00 | 75 | 1015.5 |
| 20260902104132 | 75 | 88 | 0.0 | 0.9 | 0.00 | 0.00 | 0.00 | 75 | 1015.5 |
| 20260902103631 | 75 | 88 | 0.9 | 0.9 | 0.00 | 0.00 | 0.00 | 76 | 1015.7 |
| 20260902103127 | 75 | 89 | 0.0 | 0.0 | 0.00 | 0.00 | 0.00 | 75 | 1015.7 |
| 20260902102623 | 75 | 89 | 0.0 | 0.0 | 0.00 | 0.00 | 0.00 | 75 | 1015.4 |
| 20260902102120 | 75 | 89 | 0.0 | 0.0 | 0.00 | 0.00 | 0.00 | 75 | 1015.6 |
| 20260902101616 | 75 | 89 | 0.0 | 0.0 | 0.00 | 0.00 | 0.00 | 74 | 1015.5 |
| 20260902101115 | 75 | 90 | 0.0 | 0.0 | 0.00 | 0.00 | 0.00 | 74 | 1015.7 |
| 20260902100609 | 75 | 90 | 0.0 | 0.0 | 0.00 | 0.00 | 0.00 | 74 | 1015.6 |
| 20260902100104 | 75 | 90 | 0.9 | 0.9 | 0.00 | 0.00 | 0.00 | 74 | 1015.5 |
| 20260902095603 | 75 | 89 | 0.0 | 0.0 | 0.00 | 0.00 | 0.00 | 75 | 1015.6 |
| 20260902095102 | 75 | 75 | 0.9 | 0.9 | 0.00 | 0.00 | 0.00 | 75 | 1015.5 |
| 20260902094558 | 75 | 67 | 0.9 | 0.9 | 0.00 | 0.00 | 0.00 | 74 | 1015.5 |
| 20260902094054 | 76 | 67 | 0.0 | 0.0 | 0.00 | 0.00 | 0.00 | 74 | 1015.6 |
| 20260902093553 | 76 | 100 | 0.0 | 0.0 | 0.00 | 0.00 | 0.00 | 74 | 1015.6 |
| 20260902093048 | 75 | 101 | 0.9 | 0.9 | 0.00 | 0.00 | 0.00 | 74 | 1015.5 |
| 20260902092538 | 75 | 101 | 0.0 | 0.0 | 0.00 | 0.00 | 0.00 | 75 | 1015.7 |
| 20260902092032 | 75 | 101 | 0.9 | 0.0 | 0.00 | 0.00 | 0.00 | 75 | 1015.7 |
| 20260902091528 | 75 | 101 | 0.0 | 0.0 | 0.00 | 0.00 | 0.00 | 75 | 1015.6 |
| 20260902091024 | 76 | 101 | 0.0 | 0.0 | 0.00 | 0.00 | 0.00 | 74 | 1015.4 |
| 20260902090520 | 76 | 101 | 0.0 | 0.0 | 0.00 | 0.00 | 0.00 | 74 | 1015.4 |
| 20260902090018 | 76 | 101 | 0.9 | 0.9 | 0.00 | 0.00 | 0.00 | 74 | 1015.5 |
| 20260902085513 | 76 | 101 | 0.0 | 0.0 | 0.00 | 0.00 | 0.00 | 74 | 1015.6 |
| 20260902085008 | 76 | 101 | 0.0 | 0.0 | 0.00 | 0.00 | 0.00 | 73 | 1015.3 |
| 20260902084504 | 76 | 101 | 0.0 | 0.0 | 0.00 | 0.00 | 0.00 | 73 | 1015.4 |
| 20260902083959 | 76 | 101 | 0.0 | 0.0 | 0.00 | 0.00 | 0.00 | 73 | 1015.2 |
| 20260902083454 | 76 | 101 | 0.0 | 0.0 | 0.00 | 0.00 | 0.00 | 72 | 1015.6 |
| 20260902082949 | 76 | 101 | 0.0 | 0.0 | 0.00 | 0.00 | 0.00 | 72 | 1015.3 |
| 20260902082444 | 77 | 101 | 0.0 | 0.0 | 0.00 | 0.00 | 0.00 | 71 | 1015.0 |
| 20260902081941 | 77 | 101 | 0.0 | 0.0 | 0.00 | 0.00 | 0.00 | 71 | 1015.3 |
| 20260902081437 | 77 | 101 | 0.0 | 0.0 | 0.00 | 0.00 | 0.00 | 70 | 1015.3 |
| 20260902080932 | 77 | 101 | 0.0 | 0.0 | 0.00 | 0.00 | 0.00 | 70 | 1015.2 |
| 20260902080428 | 77 | 101 | 0.9 | 0.9 | 0.00 | 0.00 | 0.00 | 70 | 1015.5 |
| 20260902075927 | 77 | 101 | 0.9 | 0.9 | 0.00 | 0.00 | 0.00 | 70 | 1014.9 |
| 20260902075424 | 77 | 101 | 0.9 | 0.9 | 0.00 | 0.00 | 0.00 | 71 | 1015.3 |
| 20260902074919 | 77 | 90 | 0.0 | 0.0 | 0.00 | 0.00 | 0.00 | 70 | 1015.3 |
| 20260902074415 | 77 | 89 | 0.9 | 0.9 | 0.00 | 0.00 | 0.00 | 69 | 1015.0 |
| 20260902073909 | 77 | 89 | 0.0 | 0.0 | 0.00 | 0.00 | 0.00 | 69 | 1015.2 |
| 20260902073405 | 77 | 89 | 0.0 | 0.0 | 0.00 | 0.00 | 0.00 | 69 | 1015.2 |
| 20260902072901 | 78 | 89 | 0.0 | 0.0 | 0.00 | 0.00 | 0.00 | 68 | 1015.3 |
| 20260902072357 | 78 | 89 | 0.0 | 0.0 | 0.00 | 0.00 | 0.00 | 68 | 1015.3 |
| 20260902071853 | 78 | 89 | 0.0 | 0.0 | 0.00 | 0.00 | 0.00 | 68 | 1015.0 |
| 20260902071353 | 78 | 89 | 0.0 | 0.0 | 0.00 | 0.00 | 0.00 | 67 | 1015.4 |
| 20260902070849 | 78 | 89 | 0.0 | 0.0 | 0.00 | 0.00 | 0.00 | 67 | 1015.2 |
| 20260902070344 | 78 | 89 | 0.0 | 0.0 | 0.00 | 0.00 | 0.00 | 66 | 1015.0 |
| 20260902065842 | 78 | 89 | 0.0 | 0.0 | 0.00 | 0.00 | 0.00 | 66 | 1014.9 |
| 20260902065338 | 78 | 89 | 0.0 | 0.0 | 0.00 | 0.00 | 0.00 | 66 | 1014.9 |
| 20260902064833 | 79 | 89 | 0.0 | 0.0 | 0.00 | 0.00 | 0.00 | 66 | 1015.0 |
| 20260902064329 | 79 | 89 | 0.9 | 0.0 | 0.00 | 0.00 | 0.00 | 66 | 1014.9 |
| 20260902063819 | 79 | 90 | 0.0 | 0.0 | 0.00 | 0.00 | 0.00 | 65 | 1015.0 |
| 20260902063318 | 79 | 90 | 0.0 | 0.0 | 0.00 | 0.00 | 0.00 | 64 | 1015.2 |
| 20260902062813 | 79 | 96 | 0.9 | 0.9 | 0.00 | 0.00 | 0.00 | 64 | 1015.2 |
| 20260902062308 | 79 | 100 | 0.0 | 0.0 | 0.00 | 0.00 | 0.00 | 63 | 1015.2 |
| 20260902061807 | 79 | 105 | 0.0 | 0.0 | 0.00 | 0.00 | 0.00 | 63 | 1014.8 |
| 20260902061302 | 79 | 85 | 0.0 | 0.0 | 0.00 | 0.00 | 0.00 | 62 | 1015.0 |
| 20260902060759 | 80 | 104 | 0.0 | 0.0 | 0.00 | 0.00 | 0.00 | 62 | 1014.8 |
| 20260902060254 | 80 | 94 | 0.9 | 0.9 | 0.00 | 0.00 | 0.00 | 61 | 1015.2 |
| 20260902055750 | 80 | 93 | 0.0 | 0.0 | 0.00 | 0.00 | 0.00 | 61 | 1014.7 |
| 20260902055246 | 80 | 93 | 0.9 | 0.9 | 0.00 | 0.00 | 0.00 | 60 | 1015.0 |
| 20260902054741 | 80 | 104 | 0.0 | 0.0 | 0.00 | 0.00 | 0.00 | 60 | 1015.2 |
| 20260902054237 | 80 | 104 | 0.9 | 0.9 | 0.00 | 0.00 | 0.00 | 60 | 1014.9 |
| 20260902053732 | 80 | 109 | 0.0 | 0.0 | 0.00 | 0.00 | 0.00 | 61 | 1015.0 |
| 20260902053231 | 81 | 110 | 0.0 | 0.0 | 0.00 | 0.00 | 0.00 | 60 | 1015.2 |
| 20260902052731 | 81 | 110 | 0.0 | 0.0 | 0.00 | 0.00 | 0.00 | 59 | 1015.2 |
| 20260902052227 | 80 | 85 | 0.9 | 0.9 | 0.00 | 0.00 | 0.00 | 58 | 1015.0 |
| 20260902051726 | 80 | 53 | 0.0 | 0.0 | 0.00 | 0.00 | 0.00 | 60 | 1015.2 |
| 20260902051220 | 81 | 52 | 0.9 | 0.9 | 0.00 | 0.00 | 0.00 | 60 | 1015.2 |
| 20260902050715 | 81 | 52 | 0.0 | 0.0 | 0.00 | 0.00 | 0.00 | 59 | 1015.2 |
| 20260902050211 | 81 | 52 | 0.0 | 0.0 | 0.00 | 0.00 | 0.00 | 59 | 1015.2 |
| 20260902045710 | 81 | 52 | 0.0 | 0.0 | 0.00 | 0.00 | 0.00 | 57 | 1015.2 |
| 20260902045207 | 81 | 52 | 0.0 | 0.0 | 0.00 | 0.00 | 0.00 | 57 | 1015.2 |
| 20260902044702 | 82 | 52 | 0.0 | 0.0 | 0.00 | 0.00 | 0.00 | 57 | 1015.2 |
| 20260902044158 | 82 | 52 | 0.0 | 0.0 | 0.00 | 0.00 | 0.00 | 56 | 1014.8 |
| 20260902043652 | 83 | 52 | 0.0 | 0.0 | 0.00 | 0.00 | 0.00 | 56 | 1015.0 |
| 20260902043148 | 83 | 52 | 0.0 | 0.0 | 0.00 | 0.00 | 0.00 | 55 | 1015.0 |
| 20260902042647 | 84 | 40 | 1.7 | 1.7 | 0.00 | 0.00 | 0.00 | 53 | 1014.7 |
| 20260902042143 | 84 | 305 | 0.0 | 0.0 | 0.00 | 0.00 | 0.00 | 51 | 1014.7 |
| 20260902041642 | 84 | 305 | 0.0 | 0.9 | 0.00 | 0.00 | 0.00 | 50 | 1014.9 |
| 20260902041137 | 84 | 305 | 0.0 | 0.0 | 0.00 | 0.00 | 0.00 | 50 | 1014.9 |
| 20260902040636 | 84 | 270 | 0.9 | 1.7 | 0.00 | 0.00 | 0.00 | 50 | 1014.7 |
| 20260902040132 | 85 | 262 | 1.7 | 1.7 | 0.00 | 0.00 | 0.00 | 49 | 1014.8 |
| 20260902035630 | 85 | 277 | 0.9 | 0.9 | 0.00 | 0.00 | 0.00 | 50 | 1014.6 |
| 20260902035126 | 85 | 294 | 0.0 | 0.9 | 0.00 | 0.00 | 0.00 | 49 | 1014.6 |
| 20260902034625 | 85 | 284 | 0.9 | 0.9 | 0.00 | 0.00 | 0.00 | 49 | 1014.6 |
| 20260902034119 | 85 | 290 | 0.9 | 1.7 | 0.00 | 0.00 | 0.00 | 49 | 1014.3 |
| 20260902033618 | 85 | 258 | 0.0 | 0.0 | 0.00 | 0.00 | 0.00 | 50 | 1014.3 |
| 20260902033113 | 85 | 273 | 0.0 | 0.0 | 0.00 | 0.00 | 0.00 | 50 | 1014.1 |
| 20260902032612 | 85 | 266 | 0.0 | 0.0 | 0.00 | 0.00 | 0.00 | 49 | 1013.9 |
| 20260902032107 | 85 | 287 | 0.9 | 0.9 | 0.00 | 0.00 | 0.00 | 49 | 1014.0 |
| 20260902031607 | 85 | 257 | 0.0 | 0.0 | 0.00 | 0.00 | 0.00 | 49 | 1013.8 |
| 20260902031103 | 85 | 257 | 0.0 | 0.0 | 0.00 | 0.00 | 0.00 | 49 | 1013.6 |
| 20260902030558 | 85 | 294 | 0.9 | 0.9 | 0.00 | 0.00 | 0.00 | 49 | 1013.6 |
| 20260902030058 | 86 | 295 | 0.9 | 0.9 | 0.00 | 0.00 | 0.00 | 48 | 1013.4 |
| 20260902025558 | 86 | 296 | 0.0 | 0.0 | 0.00 | 0.00 | 0.00 | 48 | 1013.1 |
| 20260902025053 | 86 | 300 | 0.0 | 0.0 | 0.00 | 0.00 | 0.00 | 48 | 1013.0 |
| 20260902024549 | 86 | 250 | 0.9 | 0.9 | 0.00 | 0.00 | 0.00 | 47 | 1013.2 |
| 20260902024048 | 86 | 288 | 0.0 | 0.0 | 0.00 | 0.00 | 0.00 | 47 | 1013.1 |
| 20260902023544 | 86 | 289 | 0.0 | 0.0 | 0.00 | 0.00 | 0.00 | 46 | 1013.2 |
| 20260902023039 | 87 | 303 | 0.0 | 0.0 | 0.00 | 0.00 | 0.00 | 45 | 1013.1 |
| 20260902022533 | 87 | 285 | 1.7 | 1.7 | 0.00 | 0.00 | 0.00 | 45 | 1013.0 |
| 20260902022029 | 87 | 301 | 1.7 | 1.7 | 0.00 | 0.00 | 0.00 | 43 | 1012.9 |
| 20260902021525 | 87 | 293 | 0.9 | 0.9 | 0.00 | 0.00 | 0.00 | 43 | 1012.7 |
| 20260902021025 | 87 | 302 | 2.6 | 2.6 | 0.00 | 0.00 | 0.00 | 42 | 1012.7 |
| 20260902020520 | 88 | 300 | 0.9 | 0.9 | 0.00 | 0.00 | 0.00 | 42 | 1012.6 |
| 20260902020016 | 88 | 302 | 0.9 | 0.9 | 0.00 | 0.00 | 0.00 | 41 | 1012.7 |